Topeka, KS

6:17 PM CST on December 12, 2019 (GMT -0600)
Billard Municipal

Weather History for KTOP - August, 2019

Change the Weather History Date:

Thursday, August 29, 2019

  Actual Average Record
Temperature  
Mean Temperature 79 °F 75 °F  
Max Temperature 93 °F 87 °F 110 °F (1984)
Min Temperature 65 °F 64 °F 41 °F (1988)
Degree Days  
Heating Degree Days 0 0  
Month to date heating degree days 0 0  
Since 1 June heating degree days 0 8  
Since 1 July heating degree days 0 0  
Cooling Degree Days 14 10  
Month to date cooling degree days 357 366  
Year to date cooling degree days 1236 1208  
Since 1 June cooling degree days 1124 1082  
Growing Degree Days 28 (Base 50)    
Moisture  
Dew Point 68 °F    
Average Humidity 72    
Maximum Humidity 87    
Minimum Humidity 56    
Precipitation  
Precipitation 1.99 in 0.13 in 3.02 in (1994)
Month to date precipitation 11.22 3.97  
Year to date precipitation 40.08 26.30  
Snow  
Snow 0.00 in 0.00 in 0.00 in ()
Month to date snowfall T 0.0  
Year to date snowfall 18.5 11.3  
Since 1 July snowfall T 0.0  
Snow Depth 0.00 in    
Sea Level Pressure  
Sea Level Pressure 29.94 in    
Wind  
Wind Speed 9 mph (South)    
Max Wind Speed 39 mph    
Max Gust Speed 57 mph    
Visibility 10 miles    
Events Rain , Thunderstorm    
T = Trace of Precipitation, MM = Missing Value Source: NWS Daily Summary

Daily Weather History Graph

Daily Weather History Graph

Search for Another Location

Airport or City:

Astronomy

Aug. 29, 2019 Rise Set
Actual Time 6:48 AM CDT 7:57 PM CDT
Civil Twilight 6:20 AM CDT 8:25 PM CDT
Nautical Twilight 5:47 AM CDT 8:58 PM CDT
Astronomical Twilight 5:13 AM CDT 9:32 PM CDT
Moon 5:35 AM CDT (8/29) 7:54 PM CDT (8/29)
Length of Visible Light 14h 04m
Length of Day
13h 09m
Waning Crescent, 1% of the Moon is Illuminated
Aug 29
Waning Crescent
Aug 30
New
Sep 5
First Quarter
Sep 13
Full
Sep 21
Last Quarter

Hourly Weather History & Observations

Time (CDT) Temp. Heat Index Dew Point Humidity Pressure Visibility Wind Dir Wind Speed Gust Speed Precip Events Conditions
12:53 AM 68.0 °F - 61.0 °F 78% 29.98 in 10.0 mi South 4.6 mph - N/A   Clear
1:53 AM 68.0 °F - 61.0 °F 78% 29.98 in 10.0 mi South 4.6 mph - N/A   Clear
2:53 AM 69.1 °F - 62.1 °F 78% 29.97 in 10.0 mi SSW 5.8 mph - N/A   Clear
3:53 AM 68.0 °F - 62.1 °F 81% 29.98 in 10.0 mi South 3.5 mph - 0.00 in   Clear
4:53 AM 68.0 °F - 62.1 °F 81% 29.96 in 10.0 mi South 3.5 mph - 0.00 in   Clear
5:53 AM 66.0 °F - 62.1 °F 87% 29.96 in 10.0 mi Calm Calm - N/A   Clear
6:53 AM 66.0 °F - 62.1 °F 87% 29.97 in 10.0 mi Calm Calm - N/A   Partly Cloudy
8:53 AM 75.9 °F - 68.0 °F 76% 29.97 in 10.0 mi Variable 5.8 mph - N/A   Partly Cloudy
9:53 AM 80.1 °F 83.2 °F 70.0 °F 71% 29.96 in 10.0 mi South 4.6 mph - N/A   Clear
10:53 AM 82.9 °F 87.5 °F 71.1 °F 67% 29.96 in 10.0 mi SSW 9.2 mph 16.1 mph N/A   Clear
11:53 AM 86.0 °F 91.5 °F 71.1 °F 61% 29.95 in 10.0 mi SW 9.2 mph 18.4 mph N/A   Clear
12:53 PM 88.0 °F 95.6 °F 73.0 °F 61% 29.94 in 10.0 mi SW 12.7 mph 19.6 mph N/A   Scattered Clouds
1:53 PM 88.0 °F 95.6 °F 73.0 °F 61% 29.93 in 10.0 mi SW 10.4 mph - N/A   Mostly Cloudy
2:53 PM 91.0 °F 99.3 °F 73.0 °F 55% 29.91 in 10.0 mi SSW 9.2 mph 18.4 mph N/A   Scattered Clouds
3:53 PM 91.0 °F 99.3 °F 73.0 °F 55% 29.90 in 10.0 mi SSW 9.2 mph - N/A   Partly Cloudy
4:53 PM 91.0 °F 99.3 °F 73.0 °F 55% 29.89 in 10.0 mi South 10.4 mph - N/A   Partly Cloudy
5:53 PM 91.0 °F 99.3 °F 73.0 °F 55% 29.88 in 10.0 mi South 11.5 mph - N/A   Partly Cloudy
6:53 PM 89.1 °F 97.0 °F 73.0 °F 59% 29.88 in 10.0 mi South 8.1 mph - N/A   Clear
7:53 PM 84.9 °F 92.1 °F 73.9 °F 69% 29.90 in 10.0 mi SSE 5.8 mph - N/A   Partly Cloudy
8:53 PM 82.0 °F 87.9 °F 73.9 °F 76% 29.90 in 10.0 mi SSE 5.8 mph - N/A   Clear
9:53 PM 82.0 °F 87.9 °F 73.9 °F 76% 29.90 in 10.0 mi SSE 11.5 mph - N/A   Clear
10:53 PM 82.0 °F 87.9 °F 73.9 °F 76% 29.92 in 10.0 mi SSE 9.2 mph - N/A   Mostly Cloudy
11:27 PM 73.0 °F - 64.9 °F 76% 29.97 in 9.0 mi East 18.4 mph 32.2 mph 0.00 in Rain Rain
11:39 PM 70.0 °F - 64.0 °F 81% 29.98 in 10.0 mi ENE 23.0 mph 35.7 mph 0.01 in Rain , Thunderstorm Light Thunderstorms and Rain
11:53 PM 69.1 °F - 64.0 °F 84% 30.01 in 10.0 mi NE 24.2 mph 35.7 mph 0.01 in Thunderstorm Thunderstorm